SV1BYK-4 Weather Reports


Display with metric or nautical units.
time (UTC)temp
F
wind
direction
speed
MPH
gust
MPH
rain 1hr
in
rain 24hr
in
rain mn
in
humidity
%
barometer
mb
20260507105138 73 211 5.0 14.0 0.00 0.00 0.00 50 1016.7
20260507104238 71 242 8.0 17.0 0.00 0.00 0.00 59 1016.6
20260507103338 73 218 4.0 13.0 0.00 0.00 0.00 59 1016.5
20260507102438 74 238 4.0 11.0 0.00 0.00 0.00 57 1016.2
20260507101538 73 222 4.0 9.0 0.00 0.00 0.00 60 1016.1
20260507100638 74 117 2.0 11.0 0.00 0.00 0.00 57 1016.1
20260507095738 74 231 3.0 9.0 0.00 0.00 0.00 58 1016.2
20260507094838 74 215 3.0 8.0 0.00 0.00 0.00 56 1016.2
20260507093938 74 173 4.0 8.0 0.00 0.00 0.00 54 1016.2
20260507092138 75 226 2.0 6.0 0.00 0.00 0.00 46 1016.2
20260507090338 74 129 2.0 6.0 0.00 0.00 0.00 45 1016.0
20260507085438 74 115 2.0 6.0 0.00 0.00 0.00 44 1016.0
20260507084538 74 121 2.0 7.0 0.00 0.00 0.00 45 1016.0
20260507083638 73 132 3.0 6.0 0.00 0.00 0.00 45 1016.2
20260507082738 74 186 0.0 4.0 0.00 0.00 0.00 44 1016.1
20260507081838 74 164 2.0 4.0 0.00 0.00 0.00 42 1015.9
20260507080938 73 182 3.0 4.0 0.00 0.00 0.00 45 1016.0
20260507075138 72 112 2.0 7.0 0.00 0.00 0.00 46 1016.0
20260507074238 72 251 4.0 8.0 0.00 0.00 0.00 45 1015.9
20260507072438 71 202 2.0 4.0 0.00 0.00 0.00 46 1015.5
20260507071538 72 120 2.0 4.0 0.00 0.00 0.00 47 1015.7
20260507070638 71 159 2.0 6.0 0.00 0.00 0.00 50 1015.8
20260507065738 71 153 2.0 6.0 0.00 0.00 0.00 50 1015.9
20260507064838 71 174 3.0 4.0 0.00 0.00 0.00 51 1016.0
20260507063038 71 127 2.0 6.0 0.00 0.00 0.00 50 1015.9
20260507062138 70 98 3.0 4.0 0.00 0.00 0.00 50 1016.1
20260507061238 71 97 2.0 4.0 0.00 0.00 0.00 50 1016.2
20260507060338 70 14 1.0 2.0 0.00 0.00 0.00 51 1016.2
20260507055438 71 314 0.0 2.0 0.00 0.00 0.00 50 1016.1
20260507054538 70 314 0.0 2.0 0.00 0.00 0.00 52 1016.1
20260507053638 68 311 0.0 2.0 0.00 0.00 0.00 52 1015.9
20260507052738 67 292 0.0 2.0 0.00 0.00 0.00 53 1015.8
20260507051838 66 294 1.0 2.0 0.00 0.00 0.00 53 1015.6
20260507050938 64 313 1.0 2.0 0.00 0.00 0.00 55 1015.7
20260507050038 63 324 1.0 2.0 0.00 0.00 0.00 56 1015.7
20260507044238 62 316 1.0 2.0 0.00 0.00 0.00 58 1015.7
20260507043338 61 314 0.0 2.0 0.00 0.00 0.00 59 1015.7
20260507042438 61 314 1.0 2.0 0.00 0.00 0.00 60 1015.6
20260507041538 61 314 1.0 2.0 0.00 0.00 0.00 61 1015.6
20260507040638 60 318 1.0 2.0 0.00 0.00 0.00 61 1015.7
20260507035738 60 329 1.0 2.0 0.00 0.00 0.00 61 1015.8
20260507034838 60 318 0.0 2.0 0.00 0.00 0.00 61 1015.8
20260507033938 60 314 0.0 2.0 0.00 0.00 0.00 61 1015.6
20260507033038 60 314 0.0 2.0 0.00 0.00 0.00 60 1015.6
20260507032138 60 314 1.0 2.0 0.00 0.00 0.00 60 1015.4
20260507031238 60 322 0.0 2.0 0.00 0.00 0.00 60 1015.5
20260507025438 60 338 0.0 2.0 0.00 0.00 0.00 60 1015.4
20260507024538 60 337 0.0 2.0 0.00 0.00 0.00 60 1015.3
20260507023638 60 337 0.0 2.0 0.00 0.00 0.00 60 1015.3
20260507022738 60 337 0.0 2.0 0.00 0.00 0.00 60 1015.3
20260507021838 60 337 0.0 2.0 0.00 0.00 0.00 59 1015.3
20260507020038 60 337 0.0 2.0 0.00 0.00 0.00 59 1015.2
20260507015138 61 338 0.0 2.0 0.00 0.00 0.00 58 1015.2
20260507013338 61 314 0.0 2.0 0.00 0.00 0.00 57 1015.0
20260507012438 61 314 0.0 2.0 0.00 0.00 0.00 57 1015.0
20260507011538 61 314 0.0 2.0 0.00 0.00 0.00 56 1014.8
20260507005738 62 314 0.0 2.0 0.00 0.00 0.00 56 1014.5
20260507004838 62 314 0.0 2.0 0.00 0.00 0.00 56 1014.6
20260507003038 62 292 1.0 4.0 0.00 0.00 0.00 55 1014.5
20260507001238 62 292 0.0 2.0 0.00 0.00 0.00 56 1014.6
20260506235438 62 292 0.0 2.0 0.00 0.00 0.00 57 1014.8
20260506234538 62 0 0.0 0.0 0.00 0.00 0.00 56 1014.9
20260506233638 63 292 0.0 2.0 0.00 0.00 0.00 55 1015.1
20260506232738 63 0 0.0 0.0 0.00 0.00 0.00 56 1015.1
20260506230938 63 292 0.0 2.0 0.00 0.00 0.00 55 1015.3
20260506230038 63 292 0.0 2.0 0.00 0.00 0.00 55 1015.3
20260506225138 64 292 0.0 2.0 0.00 0.00 0.00 54 1015.3
20260506224238 64 292 1.0 2.0 0.00 0.00 0.00 54 1015.3
20260506223338 65 292 0.0 2.0 0.00 0.00 0.00 55 1015.3
20260506221538 66 292 0.0 2.0 0.00 0.00 0.00 52 1015.4
20260506220638 66 292 2.0 2.0 0.00 0.00 0.00 53 1015.5
20260506215738 66 292 0.0 2.0 0.00 0.00 0.00 54 1015.4
20260506214838 66 0 0.0 0.0 0.00 0.00 0.00 53 1015.5
20260506213938 66 0 0.0 0.0 0.00 0.00 0.00 52 1015.5
20260506213038 66 292 0.0 2.0 0.00 0.00 0.00 52 1015.7
20260506212138 66 292 0.0 2.0 0.00 0.00 0.00 51 1015.7
20260506211238 67 292 0.0 2.0 0.00 0.00 0.00 51 1015.8
20260506210338 66 292 0.0 2.0 0.00 0.00 0.00 51 1015.9
20260506203638 67 283 0.0 4.0 0.00 0.00 0.00 49 1016.0
20260506200938 68 262 2.0 4.0 0.00 0.00 0.00 47 1015.9
20260506195138 69 273 3.0 6.0 0.00 0.00 0.00 44 1015.8
20260506194238 69 268 4.0 6.0 0.00 0.00 0.00 43 1015.7
20260506193338 69 270 3.0 4.0 0.00 0.00 0.00 42 1015.7
20260506192438 69 278 2.0 4.0 0.00 0.00 0.00 42 1015.5
20260506191538 70 280 3.0 4.0 0.00 0.00 0.00 41 1015.4
20260506190638 70 277 1.0 4.0 0.00 0.00 0.00 42 1015.4
20260506185738 70 292 2.0 4.0 0.00 0.00 0.00 42 1015.2
20260506183938 70 292 2.0 4.0 0.00 0.00 0.00 42 1015.1
20260506183038 70 290 2.0 4.0 0.00 0.00 0.00 42 1015.0
20260506182138 70 283 2.0 4.0 0.00 0.00 0.00 42 1015.1
20260506180338 70 273 3.0 6.0 0.00 0.00 0.00 42 1014.9
20260506174538 70 259 2.0 6.0 0.00 0.00 0.00 42 1014.9
20260506173638 70 270 3.0 4.0 0.00 0.00 0.00 42 1014.9
20260506172738 70 270 3.0 6.0 0.00 0.00 0.00 42 1014.7
20260506171838 71 269 3.0 6.0 0.00 0.00 0.00 42 1014.8
20260506170038 71 268 4.0 7.0 0.00 0.00 0.00 42 1014.7
20260506165138 72 257 2.0 7.0 0.00 0.00 0.00 41 1014.8
20260506164238 72 265 4.0 7.0 0.00 0.00 0.00 40 1014.8
20260506163338 73 258 4.0 8.0 0.00 0.00 0.00 39 1014.9
20260506160638 74 246 3.0 7.0 0.00 0.00 0.00 36 1014.9
20260506155738 75 243 2.0 8.0 0.00 0.00 0.00 35 1015.0
20260506153938 75 241 4.0 9.0 0.00 0.00 0.00 35 1015.1
20260506153038 75 255 4.0 11.0 0.00 0.00 0.00 34 1015.3
20260506152138 75 238 3.0 9.0 0.00 0.00 0.00 34 1015.4
20260506151238 75 132 4.0 9.0 0.00 0.00 0.00 35 1015.5
20260506150338 75 249 2.0 9.0 0.00 0.00 0.00 35 1015.6
20260506145438 76 254 2.0 11.0 0.00 0.00 0.00 34 1015.7
20260506143638 76 178 3.0 9.0 0.00 0.00 0.00 35 1015.6
20260506141838 76 186 4.0 7.0 0.00 0.00 0.00 37 1015.6
20260506140938 76 253 2.0 11.0 0.00 0.00 0.00 38 1015.7
20260506140038 75 237 3.0 11.0 0.00 0.00 0.00 40 1015.8
20260506135138 75 262 4.0 9.0 0.00 0.00 0.00 41 1015.8
20260506134238 74 229 2.0 11.0 0.00 0.00 0.00 43 1015.9
20260506133338 72 261 9.0 13.0 0.00 0.00 0.00 46 1016.0
20260506132438 75 232 4.0 8.0 0.00 0.00 0.00 44 1015.9
20260506131538 75 225 3.0 11.0 0.00 0.00 0.00 45 1016.0
20260506130638 75 212 3.0 9.0 0.00 0.00 0.00 42 1015.9
20260506125738 75 225 4.0 11.0 0.00 0.00 0.00 41 1015.9
20260506124838 76 120 3.0 11.0 0.00 0.00 0.00 39 1016.0
20260506123938 76 212 4.0 11.0 0.00 0.00 0.00 38 1016.1
20260506123038 75 240 5.0 11.0 0.00 0.00 0.00 42 1016.1
20260506121238 74 239 4.0 9.0 0.00 0.00 0.00 42 1016.2
20260506120338 74 223 4.0 11.0 0.00 0.00 0.00 45 1016.3
20260506115438 74 206 4.0 11.0 0.00 0.00 0.00 43 1016.4
20260506114538 74 177 4.0 9.0 0.00 0.00 0.00 43 1016.4
20260506112738 74 136 4.0 11.0 0.00 0.00 0.00 47 1016.5
20260506111838 74 223 4.0 11.0 0.00 0.00 0.00 46 1016.5
20260506110938 75 112 4.0 9.0 0.00 0.00 0.00 43 1016.5
20260506110038 76 111 4.0 11.0 0.00 0.00 0.00 38 1016.5